Погода в Ваикале

Шри-Ланка     7°12′28″N   79°51′00″E
темп.,
°C
ветер,
м/с
пор.,
м/с
влажн.,
%
обл.,
%
осадки,
мм/ч
давл.,
гПа
погр.,
м
27 января, чт
чт2723:30+26в117275 0.8 101176
02:30+25всв327951 0.0 1009318
05:30+24всв3282100 0.0 1009279
08:30+24св4480100 0.0 1011304
11:30+27ссз4560100 0.0 1010432
14:30+28сз896389 0.0 1006393
17:30+27ссз111272100 0.0 1007547
20:30+28ссв796698 0.0 1009841
28 января, пт
пт2823:30+25всв7870100 0.0 1010374
02:30+25св7773100 0.0 1009295
05:30+24св7877100 0.0 1009373
08:30+24св677473 0.0 1011351
11:30+27ююв125089 0.0 1010397
14:30+27з555858 0.0 1007565
17:30+27сз10107098 0.0 1008652
20:30+28ссв8971100 0.1 1010865
29 января, сб
сб2923:30+26св8877100 0.1 1010524
02:30+25св798184 0.0 1009523
05:30+25ссв7108488 0.0 1009518
08:30+26св5782100 0.0 1011488
11:30+28сз557457 0.1 1010385
14:30+28сз6576100 0.3 1007298
17:30+28сз4475100 0.8 1007119
20:30+28ююв3475100 0.5 1009210
30 января, вс
вс3023:30+27ююв5577100 0.6 1010429
02:30+26всв338139 0.0 1009286
05:30+25всв117918 0.1 1009216
08:30+25св227996 0.1 1011232
11:30+26зсз227820 0.1 1010178
14:30+27з6574100 0.0 1007256
17:30+27сз777936 0.0 1006505
20:30+28с457697 0.8 1008380
31 января, пн
пн3123:30+27в4582100 0.8 1009346
02:30+26вюв558451 0.7 1007388
05:30+25в338551 1.5 1008291
08:30+25всв3285100 0.2 1010219
11:30+26зсз448170 0.2 1010235
14:30+28зсз56750 0.0 1006366
17:30+28ссз910806 0.2 1006522
20:30+28св797734 1.4 1009612